Torna al catalogo

STARLINK-32198

AttivoComunicazioniVLEO
NORAD 60321·PAYLOAD·🇺🇸 United States

Lanciato Jul 28, 2024 da Vandenberg Space Force Base

Loading…

Prossimi Passaggi (prossime 24 ore)

TLE

AggiornatoSource: CelesTrak SupGP

Epoca: Sep 14, 2026, 21:18 UTC

1 60321C 24133W   26257.88798611 -.00011942  00000+0 -35308-3 0  2572
2 60321  53.1560 135.6544 0001084  76.7092 301.2736 15.34373704    16

Traccia STARLINK-32198 in tempo reale con AllMySat

Download on the App Store